| time (UTC) | temp F | wind direction | speed knots | gust knots | rain 1hr in | rain 24hr in | rain mn in | humidity % | barometer mb |
| 20260901173558 | 72 | 205 | 1.7 | 7.8 | 0.00 | 0.00 | 0.00 | 75 | 1014.9 |
| 20260901173138 | 72 | 206 | 2.6 | 7.8 | 0.00 | 0.00 | 0.00 | 75 | 1014.9 |
| 20260901172557 | 71 | 242 | 0.9 | 6.1 | 0.00 | 0.00 | 0.00 | 76 | 1014.9 |
| 20260901172055 | 71 | 272 | 2.6 | 7.0 | 0.00 | 0.00 | 0.00 | 75 | 1014.9 |
| 20260901171605 | 72 | 227 | 3.5 | 7.0 | 0.00 | 0.00 | 0.00 | 74 | 1014.9 |
| 20260901171058 | 72 | 259 | 0.9 | 3.5 | 0.00 | 0.00 | 0.00 | 73 | 1014.8 |
| 20260901170555 | 72 | 211 | 1.7 | 3.5 | 0.00 | 0.00 | 0.00 | 74 | 1014.8 |
| 20260901165554 | 71 | 182 | 0.0 | 4.3 | 0.00 | 0.00 | 0.00 | 74 | 1014.8 |
| 20260901165058 | 71 | 198 | 0.9 | 4.3 | 0.00 | 0.00 | 0.00 | 75 | 1014.8 |
| 20260901164556 | 70 | 47 | 0.0 | 5.2 | 0.00 | 0.00 | 0.00 | 76 | 1014.9 |
| 20260901164055 | 70 | 0 | 0.0 | 5.2 | 0.00 | 0.00 | 0.00 | 76 | 1014.7 |
| 20260901163555 | 70 | 234 | 1.7 | 6.1 | 0.00 | 0.00 | 0.00 | 76 | 1014.8 |
| 20260901163119 | 70 | 170 | 0.9 | 6.1 | 0.00 | 0.00 | 0.00 | 77 | 1014.8 |
| 20260901162554 | 69 | 88 | 0.9 | 6.1 | 0.00 | 0.00 | 0.00 | 78 | 1014.8 |
| 20260901162055 | 69 | 298 | 0.9 | 5.2 | 0.00 | 0.00 | 0.00 | 78 | 1014.8 |
| 20260901161608 | 69 | 175 | 0.9 | 3.5 | 0.00 | 0.00 | 0.00 | 81 | 1014.7 |
| 20260901161055 | 68 | 105 | 0.0 | 4.3 | 0.00 | 0.00 | 0.00 | 82 | 1014.7 |
| 20260901160555 | 67 | 253 | 0.9 | 4.3 | 0.00 | 0.00 | 0.00 | 82 | 1014.8 |
| 20260901160107 | 67 | 158 | 2.6 | 4.3 | 0.00 | 0.00 | 0.00 | 82 | 1014.8 |
| 20260901155555 | 67 | 177 | 0.9 | 6.1 | 0.00 | 0.00 | 0.00 | 83 | 1014.8 |
| 20260901155055 | 67 | 164 | 2.6 | 7.8 | 0.00 | 0.00 | 0.00 | 83 | 1014.8 |
| 20260901154606 | 66 | 221 | 2.6 | 8.7 | 0.00 | 0.00 | 0.00 | 83 | 1014.6 |
| 20260901154058 | 66 | 261 | 3.5 | 8.7 | 0.00 | 0.00 | 0.00 | 84 | 1014.6 |
| 20260901153555 | 66 | 184 | 0.0 | 5.2 | 0.00 | 0.00 | 0.00 | 85 | 1014.6 |
| 20260901153105 | 66 | 165 | 1.7 | 5.2 | 0.00 | 0.00 | 0.00 | 84 | 1014.7 |
| 20260901152555 | 66 | 304 | 0.0 | 3.5 | 0.00 | 0.00 | 0.00 | 85 | 1014.7 |
| 20260901152055 | 66 | 0 | 0.0 | 3.5 | 0.00 | 0.00 | 0.00 | 86 | 1014.6 |
| 20260901151612 | 66 | 0 | 0.0 | 3.5 | 0.00 | 0.00 | 0.00 | 86 | 1014.5 |
| 20260901151055 | 66 | 180 | 0.0 | 0.0 | 0.00 | 0.00 | 0.00 | 87 | 1014.5 |
| 20260901150555 | 66 | 0 | 0.0 | 0.0 | 0.00 | 0.00 | 0.00 | 88 | 1014.4 |
| 20260901150103 | 65 | 0 | 0.0 | 0.0 | 0.00 | 0.00 | 0.00 | 89 | 1014.4 |
| 20260901145555 | 65 | 0 | 0.0 | 1.7 | 0.00 | 0.00 | 0.00 | 90 | 1014.2 |
| 20260901145055 | 64 | 0 | 0.0 | 1.7 | 0.00 | 0.00 | 0.00 | 90 | 1014.2 |
| 20260901144608 | 64 | 299 | 0.0 | 0.9 | 0.00 | 0.00 | 0.00 | 90 | 1014.1 |
| 20260901144058 | 64 | 0 | 0.0 | 0.0 | 0.00 | 0.00 | 0.00 | 91 | 1014.0 |
| 20260901143554 | 64 | 0 | 0.0 | 0.9 | 0.00 | 0.00 | 0.00 | 92 | 1013.9 |
| 20260901143105 | 63 | 0 | 0.0 | 0.9 | 0.00 | 0.00 | 0.00 | 92 | 1013.9 |
| 20260901142555 | 63 | 0 | 0.0 | 0.0 | 0.00 | 0.00 | 0.00 | 93 | 1013.8 |
| 20260901142055 | 62 | 0 | 0.0 | 0.0 | 0.00 | 0.00 | 0.00 | 93 | 1013.7 |
| 20260901141604 | 62 | 0 | 0.0 | 1.7 | 0.00 | 0.00 | 0.00 | 92 | 1013.8 |
| 20260901141058 | 62 | 0 | 0.0 | 1.7 | 0.00 | 0.00 | 0.00 | 93 | 1013.7 |
| 20260901140554 | 61 | 332 | 0.0 | 0.9 | 0.00 | 0.00 | 0.00 | 93 | 1013.7 |
| 20260901140104 | 61 | 0 | 0.0 | 1.7 | 0.00 | 0.00 | 0.00 | 93 | 1013.8 |
| 20260901135556 | 61 | 0 | 0.9 | 1.7 | 0.00 | 0.00 | 0.00 | 93 | 1013.8 |
| 20260901135056 | 61 | 0 | 0.0 | 2.6 | 0.00 | 0.00 | 0.00 | 92 | 1013.7 |
| 20260901134557 | 61 | 0 | 0.0 | 2.6 | 0.00 | 0.00 | 0.00 | 92 | 1013.6 |
| 20260901134055 | 61 | 338 | 0.0 | 1.7 | 0.00 | 0.00 | 0.00 | 92 | 1013.4 |
| 20260901133558 | 61 | 0 | 0.0 | 2.6 | 0.00 | 0.00 | 0.00 | 92 | 1013.6 |
| 20260901133059 | 61 | 336 | 0.0 | 2.6 | 0.00 | 0.00 | 0.00 | 92 | 1013.6 |
| 20260901132557 | 61 | 0 | 0.0 | 1.7 | 0.00 | 0.00 | 0.00 | 92 | 1013.6 |
| 20260901132054 | 61 | 0 | 0.0 | 3.5 | 0.00 | 0.00 | 0.00 | 92 | 1013.7 |
| 20260901131601 | 61 | 0 | 0.9 | 3.5 | 0.00 | 0.00 | 0.00 | 93 | 1013.6 |
| 20260901131057 | 61 | 346 | 0.9 | 3.5 | 0.00 | 0.00 | 0.00 | 93 | 1013.6 |
| 20260901130555 | 61 | 0 | 0.0 | 1.7 | 0.00 | 0.00 | 0.00 | 92 | 1013.4 |
| 20260901130106 | 61 | 0 | 0.0 | 1.7 | 0.00 | 0.00 | 0.00 | 92 | 1013.3 |
| 20260901125557 | 61 | 0 | 0.0 | 0.9 | 0.00 | 0.00 | 0.00 | 92 | 1013.3 |
| 20260901125055 | 61 | 0 | 0.0 | 0.0 | 0.00 | 0.00 | 0.00 | 92 | 1013.3 |
| 20260901124556 | 61 | 0 | 0.0 | 0.0 | 0.00 | 0.00 | 0.00 | 92 | 1013.3 |
| 20260901124054 | 61 | 0 | 0.0 | 0.0 | 0.00 | 0.00 | 0.00 | 92 | 1013.3 |
| 20260901123556 | 61 | 0 | 0.0 | 2.6 | 0.00 | 0.00 | 0.00 | 92 | 1013.2 |
| 20260901123101 | 61 | 0 | 0.0 | 2.6 | 0.00 | 0.00 | 0.00 | 92 | 1013.3 |
| 20260901122554 | 61 | 0 | 0.9 | 2.6 | 0.00 | 0.00 | 0.00 | 92 | 1013.3 |
| 20260901122056 | 61 | 0 | 0.0 | 0.0 | 0.00 | 0.00 | 0.00 | 92 | 1013.3 |
| 20260901121604 | 61 | 0 | 0.0 | 3.5 | 0.00 | 0.00 | 0.00 | 92 | 1013.3 |
| 20260901121055 | 61 | 0 | 0.0 | 3.5 | 0.00 | 0.00 | 0.00 | 92 | 1013.3 |
| 20260901120554 | 61 | 350 | 0.0 | 3.5 | 0.00 | 0.00 | 0.00 | 92 | 1013.4 |
| 20260901120105 | 61 | 0 | 0.0 | 0.0 | 0.00 | 0.00 | 0.00 | 92 | 1013.3 |
| 20260901115554 | 61 | 0 | 0.0 | 2.6 | 0.00 | 0.00 | 0.00 | 92 | 1013.3 |
| 20260901115058 | 61 | 0 | 0.0 | 2.6 | 0.00 | 0.00 | 0.00 | 92 | 1013.3 |
| 20260901114604 | 61 | 352 | 0.9 | 2.6 | 0.00 | 0.00 | 0.00 | 92 | 1013.2 |
| 20260901114059 | 61 | 348 | 0.0 | 2.6 | 0.00 | 0.00 | 0.00 | 92 | 1013.2 |
| 20260901113559 | 61 | 0 | 0.0 | 1.7 | 0.00 | 0.00 | 0.00 | 92 | 1013.3 |
| 20260901113101 | 61 | 0 | 0.0 | 1.7 | 0.00 | 0.00 | 0.00 | 92 | 1013.2 |
| 20260901112557 | 61 | 339 | 0.0 | 0.9 | 0.00 | 0.00 | 0.00 | 91 | 1013.3 |
| 20260901112059 | 61 | 0 | 0.0 | 1.7 | 0.00 | 0.00 | 0.00 | 91 | 1013.3 |
| 20260901111608 | 61 | 0 | 0.0 | 1.7 | 0.00 | 0.00 | 0.00 | 91 | 1013.3 |
| 20260901111054 | 62 | 0 | 0.0 | 1.7 | 0.00 | 0.00 | 0.00 | 91 | 1013.2 |
| 20260901110554 | 62 | 0 | 0.0 | 0.0 | 0.00 | 0.00 | 0.00 | 92 | 1013.3 |
| 20260901110103 | 62 | 0 | 0.0 | 0.0 | 0.00 | 0.00 | 0.00 | 92 | 1013.3 |
| 20260901105555 | 61 | 0 | 0.0 | 0.0 | 0.00 | 0.00 | 0.00 | 91 | 1013.4 |
| 20260901105055 | 62 | 0 | 0.0 | 0.0 | 0.00 | 0.00 | 0.00 | 91 | 1013.3 |
| 20260901104605 | 62 | 0 | 0.0 | 0.0 | 0.00 | 0.00 | 0.00 | 91 | 1013.3 |
| 20260901104055 | 62 | 0 | 0.0 | 0.0 | 0.00 | 0.00 | 0.00 | 91 | 1013.4 |
| 20260901103554 | 62 | 0 | 0.0 | 0.0 | 0.00 | 0.00 | 0.00 | 91 | 1013.5 |
| 20260901103101 | 62 | 0 | 0.0 | 0.0 | 0.00 | 0.00 | 0.00 | 91 | 1013.5 |
| 20260901102555 | 62 | 0 | 0.0 | 0.9 | 0.00 | 0.00 | 0.00 | 92 | 1013.5 |
| 20260901102055 | 62 | 0 | 0.0 | 0.9 | 0.00 | 0.00 | 0.00 | 92 | 1013.5 |
| 20260901101607 | 62 | 0 | 0.0 | 1.7 | 0.00 | 0.00 | 0.00 | 92 | 1013.5 |
| 20260901101054 | 62 | 0 | 0.0 | 1.7 | 0.00 | 0.00 | 0.00 | 91 | 1013.5 |
| 20260901100554 | 62 | 0 | 0.0 | 1.7 | 0.00 | 0.00 | 0.00 | 91 | 1013.5 |
| 20260901100107 | 62 | 0 | 0.0 | 1.7 | 0.00 | 0.00 | 0.00 | 91 | 1013.5 |
| 20260901095555 | 62 | 0 | 0.0 | 2.6 | 0.00 | 0.00 | 0.00 | 91 | 1013.7 |
| 20260901095055 | 62 | 0 | 0.0 | 2.6 | 0.00 | 0.00 | 0.00 | 91 | 1013.6 |
| 20260901094558 | 62 | 0 | 0.9 | 2.6 | 0.00 | 0.00 | 0.00 | 91 | 1013.6 |
| 20260901094056 | 62 | 0 | 0.0 | 0.0 | 0.00 | 0.00 | 0.00 | 91 | 1013.6 |
| 20260901093555 | 62 | 0 | 0.0 | 0.0 | 0.00 | 0.00 | 0.00 | 91 | 1013.5 |
| 20260901093103 | 62 | 0 | 0.0 | 1.7 | 0.00 | 0.00 | 0.00 | 91 | 1013.4 |
| 20260901092555 | 62 | 0 | 0.0 | 1.7 | 0.00 | 0.00 | 0.00 | 91 | 1013.4 |
| 20260901092055 | 62 | 0 | 0.0 | 0.0 | 0.00 | 0.00 | 0.00 | 91 | 1013.4 |
| 20260901091556 | 62 | 0 | 0.0 | 0.9 | 0.00 | 0.00 | 0.00 | 90 | 1013.4 |
| 20260901091056 | 62 | 0 | 0.0 | 0.9 | 0.00 | 0.00 | 0.00 | 90 | 1013.4 |
| 20260901090554 | 62 | 0 | 0.0 | 2.6 | 0.00 | 0.00 | 0.00 | 90 | 1013.5 |
| 20260901090107 | 62 | 0 | 0.0 | 2.6 | 0.00 | 0.00 | 0.00 | 90 | 1013.5 |
| 20260901085554 | 62 | 0 | 0.0 | 0.0 | 0.00 | 0.00 | 0.00 | 90 | 1013.6 |
| 20260901085055 | 63 | 0 | 0.0 | 0.0 | 0.00 | 0.00 | 0.00 | 90 | 1013.6 |
| 20260901084627 | 63 | 0 | 0.0 | 0.0 | 0.00 | 0.00 | 0.00 | 90 | 1013.6 |
| 20260901084055 | 63 | 0 | 0.0 | 0.0 | 0.00 | 0.00 | 0.00 | 90 | 1013.5 |
| 20260901083555 | 63 | 0 | 0.0 | 0.0 | 0.00 | 0.00 | 0.00 | 90 | 1013.5 |
| 20260901083059 | 63 | 0 | 0.0 | 0.0 | 0.00 | 0.00 | 0.00 | 90 | 1013.5 |
| 20260901082554 | 63 | 0 | 0.0 | 0.0 | 0.00 | 0.00 | 0.00 | 90 | 1013.5 |
| 20260901082054 | 63 | 0 | 0.0 | 2.6 | 0.00 | 0.00 | 0.00 | 90 | 1013.6 |
| 20260901081556 | 63 | 0 | 0.0 | 2.6 | 0.00 | 0.00 | 0.00 | 90 | 1013.5 |
| 20260901081054 | 63 | 342 | 0.0 | 2.6 | 0.00 | 0.00 | 0.00 | 90 | 1013.5 |
| 20260901080554 | 63 | 0 | 0.0 | 0.0 | 0.00 | 0.00 | 0.00 | 90 | 1013.6 |
| 20260901080111 | 63 | 0 | 0.0 | 0.0 | 0.00 | 0.00 | 0.00 | 90 | 1013.6 |
| 20260901075555 | 63 | 0 | 0.0 | 0.0 | 0.00 | 0.00 | 0.00 | 89 | 1013.6 |
| 20260901075057 | 63 | 0 | 0.0 | 0.0 | 0.00 | 0.00 | 0.00 | 89 | 1013.7 |
| 20260901074628 | 63 | 0 | 0.0 | 0.0 | 0.00 | 0.00 | 0.00 | 89 | 1013.7 |
| 20260901074056 | 63 | 0 | 0.0 | 0.0 | 0.00 | 0.00 | 0.00 | 89 | 1013.8 |
| 20260901073556 | 63 | 0 | 0.0 | 0.0 | 0.00 | 0.00 | 0.00 | 89 | 1013.8 |
| 20260901073101 | 64 | 0 | 0.0 | 0.0 | 0.00 | 0.00 | 0.00 | 89 | 1013.9 |
| 20260901072558 | 64 | 0 | 0.0 | 0.0 | 0.00 | 0.00 | 0.00 | 89 | 1013.9 |
| 20260901072055 | 64 | 0 | 0.0 | 0.0 | 0.00 | 0.00 | 0.00 | 89 | 1013.8 |
| 20260901071608 | 64 | 0 | 0.0 | 0.0 | 0.00 | 0.00 | 0.00 | 89 | 1013.8 |
| 20260901071054 | 64 | 0 | 0.0 | 0.0 | 0.00 | 0.00 | 0.00 | 89 | 1013.8 |
| 20260901070555 | 64 | 0 | 0.0 | 0.0 | 0.00 | 0.00 | 0.00 | 89 | 1013.7 |
| 20260901070058 | 64 | 0 | 0.0 | 0.0 | 0.00 | 0.00 | 0.00 | 89 | 1013.7 |
| 20260901065555 | 64 | 0 | 0.0 | 0.0 | 0.00 | 0.00 | 0.00 | 88 | 1013.5 |
| 20260901065055 | 64 | 0 | 0.0 | 0.0 | 0.00 | 0.00 | 0.00 | 89 | 1013.5 |
| 20260901064559 | 64 | 0 | 0.0 | 0.0 | 0.00 | 0.00 | 0.00 | 89 | 1013.4 |
| 20260901064059 | 64 | 0 | 0.0 | 0.0 | 0.00 | 0.00 | 0.00 | 89 | 1013.4 |
| 20260901063554 | 64 | 0 | 0.0 | 0.0 | 0.00 | 0.00 | 0.00 | 89 | 1013.3 |
| 20260901063105 | 64 | 0 | 0.0 | 0.0 | 0.00 | 0.00 | 0.00 | 88 | 1013.2 |
| 20260901062556 | 64 | 0 | 0.0 | 0.0 | 0.00 | 0.00 | 0.00 | 88 | 1013.2 |
| 20260901062056 | 64 | 0 | 0.0 | 0.0 | 0.00 | 0.00 | 0.00 | 88 | 1013.2 |
| 20260901061611 | 65 | 0 | 0.0 | 0.0 | 0.00 | 0.00 | 0.00 | 88 | 1013.2 |
| 20260901061056 | 65 | 0 | 0.0 | 0.0 | 0.00 | 0.00 | 0.00 | 88 | 1013.2 |
| 20260901060556 | 65 | 0 | 0.0 | 0.0 | 0.00 | 0.00 | 0.00 | 88 | 1013.1 |
| 20260901060103 | 65 | 0 | 0.0 | 0.0 | 0.00 | 0.00 | 0.00 | 88 | 1013.0 |
| 20260901055555 | 65 | 0 | 0.0 | 0.0 | 0.00 | 0.00 | 0.00 | 88 | 1013.0 |
| 20260901055055 | 65 | 0 | 0.0 | 0.0 | 0.00 | 0.00 | 0.00 | 87 | 1013.1 |
| 20260901054604 | 65 | 0 | 0.0 | 0.9 | 0.00 | 0.00 | 0.00 | 87 | 1013.1 |
| 20260901054058 | 65 | 0 | 0.0 | 2.6 | 0.00 | 0.00 | 0.00 | 87 | 1013.1 |
| 20260901053556 | 65 | 0 | 0.0 | 2.6 | 0.00 | 0.00 | 0.00 | 87 | 1013.1 |
| 20260901053107 | 65 | 344 | 0.0 | 1.7 | 0.00 | 0.00 | 0.00 | 87 | 1013.0 |
| 20260901052555 | 65 | 324 | 0.0 | 2.6 | 0.00 | 0.00 | 0.00 | 87 | 1012.9 |
| 20260901052055 | 66 | 0 | 0.0 | 2.6 | 0.00 | 0.00 | 0.00 | 87 | 1012.9 |
| 20260901051612 | 66 | 0 | 0.0 | 1.7 | 0.00 | 0.00 | 0.00 | 86 | 1012.9 |
| 20260901051055 | 66 | 0 | 0.0 | 2.6 | 0.00 | 0.00 | 0.00 | 86 | 1013.1 |
| 20260901050555 | 66 | 243 | 0.0 | 3.5 | 0.00 | 0.00 | 0.00 | 86 | 1012.9 |
| 20260901050104 | 66 | 140 | 0.9 | 3.5 | 0.00 | 0.00 | 0.00 | 87 | 1012.9 |
| 20260901045555 | 66 | 0 | 0.0 | 4.3 | 0.00 | 0.00 | 0.00 | 86 | 1012.8 |
| 20260901045054 | 66 | 0 | 0.0 | 4.3 | 0.00 | 0.00 | 0.00 | 87 | 1012.8 |
| 20260901044604 | 66 | 175 | 0.0 | 2.6 | 0.00 | 0.00 | 0.00 | 87 | 1012.7 |
| 20260901044055 | 66 | 0 | 0.0 | 0.9 | 0.00 | 0.00 | 0.00 | 86 | 1012.7 |
| 20260901043555 | 66 | 0 | 0.0 | 1.7 | 0.00 | 0.00 | 0.00 | 86 | 1012.6 |
| 20260901043056 | 66 | 0 | 0.0 | 1.7 | 0.00 | 0.00 | 0.00 | 87 | 1012.5 |
| 20260901042555 | 66 | 0 | 0.0 | 0.0 | 0.00 | 0.00 | 0.00 | 87 | 1012.5 |
| 20260901042054 | 66 | 0 | 0.0 | 0.0 | 0.00 | 0.00 | 0.00 | 87 | 1012.5 |
| 20260901041619 | 66 | 0 | 0.0 | 0.0 | 0.00 | 0.00 | 0.00 | 86 | 1012.4 |
| 20260901041057 | 66 | 0 | 0.0 | 0.0 | 0.00 | 0.00 | 0.00 | 86 | 1012.2 |
| 20260901040555 | 67 | 0 | 0.0 | 0.0 | 0.00 | 0.00 | 0.00 | 86 | 1012.1 |
| 20260901040137 | 67 | 0 | 0.0 | 0.0 | 0.00 | 0.00 | 0.00 | 86 | 1012.1 |
| 20260901035556 | 67 | 0 | 0.0 | 0.0 | 0.00 | 0.00 | 0.00 | 86 | 1012.2 |
| 20260901035054 | 67 | 0 | 0.0 | 1.7 | 0.00 | 0.00 | 0.00 | 86 | 1012.1 |
| 20260901034559 | 67 | 0 | 0.0 | 2.6 | 0.00 | 0.00 | 0.00 | 86 | 1012.0 |
| 20260901034058 | 67 | 0 | 0.9 | 2.6 | 0.00 | 0.00 | 0.00 | 86 | 1011.9 |
| 20260901033554 | 67 | 0 | 0.9 | 2.6 | 0.00 | 0.00 | 0.00 | 86 | 1012.0 |
| 20260901033059 | 67 | 0 | 0.0 | 1.7 | 0.00 | 0.00 | 0.00 | 86 | 1011.8 |
| 20260901032556 | 67 | 0 | 0.0 | 1.7 | 0.00 | 0.00 | 0.00 | 86 | 1011.8 |
| 20260901032053 | 67 | 0 | 0.0 | 0.0 | 0.00 | 0.00 | 0.00 | 86 | 1011.7 |
| 20260901031602 | 67 | 0 | 0.0 | 1.7 | 0.00 | 0.00 | 0.00 | 85 | 1011.7 |
| 20260901031056 | 67 | 0 | 0.0 | 2.6 | 0.00 | 0.00 | 0.00 | 85 | 1011.8 |
| 20260901030555 | 67 | 0 | 0.9 | 5.2 | 0.00 | 0.00 | 0.00 | 85 | 1011.7 |
| 20260901030106 | 67 | 0 | 0.0 | 5.2 | 0.00 | 0.00 | 0.00 | 85 | 1011.7 |
| 20260901025552 | 67 | 254 | 2.6 | 5.2 | 0.00 | 0.00 | 0.00 | 85 | 1011.7 |
| 20260901025056 | 68 | 277 | 0.9 | 5.2 | 0.00 | 0.00 | 0.00 | 85 | 1011.5 |
| 20260901024606 | 68 | 207 | 2.6 | 6.1 | 0.00 | 0.00 | 0.00 | 85 | 1011.6 |
| 20260901024052 | 68 | 0 | 1.7 | 8.7 | 0.00 | 0.00 | 0.00 | 84 | 1011.4 |
| 20260901023553 | 68 | 254 | 4.3 | 8.7 | 0.00 | 0.00 | 0.00 | 84 | 1011.4 |
| 20260901023103 | 68 | 296 | 2.6 | 9.6 | 0.00 | 0.00 | 0.00 | 84 | 1011.4 |
| 20260901022552 | 68 | 309 | 2.6 | 9.6 | 0.00 | 0.00 | 0.00 | 84 | 1011.5 |
| 20260901022052 | 69 | 289 | 2.6 | 7.8 | 0.00 | 0.00 | 0.00 | 83 | 1011.6 |
| 20260901021601 | 69 | 267 | 0.9 | 8.7 | 0.00 | 0.00 | 0.00 | 82 | 1011.6 |
| 20260901021052 | 69 | 303 | 2.6 | 9.6 | 0.00 | 0.00 | 0.00 | 82 | 1011.6 |
| 20260901020556 | 69 | 300 | 4.3 | 9.6 | 0.00 | 0.00 | 0.00 | 81 | 1011.6 |
| 20260901020101 | 70 | 216 | 4.3 | 9.6 | 0.00 | 0.00 | 0.00 | 81 | 1011.5 |
| 20260901015555 | 70 | 155 | 5.2 | 10.4 | 0.00 | 0.00 | 0.00 | 80 | 1011.5 |
| 20260901015055 | 70 | 287 | 3.5 | 10.4 | 0.00 | 0.00 | 0.00 | 81 | 1011.5 |
| 20260901014602 | 70 | 209 | 2.6 | 9.6 | 0.00 | 0.00 | 0.00 | 81 | 1011.6 |
| 20260901014055 | 70 | 269 | 3.5 | 8.7 | 0.00 | 0.00 | 0.00 | 80 | 1011.5 |
| 20260901013555 | 70 | 283 | 4.3 | 7.8 | 0.00 | 0.00 | 0.00 | 79 | 1011.5 |
| 20260901013101 | 71 | 0 | 4.3 | 9.6 | 0.00 | 0.00 | 0.00 | 78 | 1011.6 |
| 20260901012555 | 71 | 232 | 4.3 | 9.6 | 0.00 | 0.00 | 0.00 | 78 | 1011.5 |
| 20260901012055 | 72 | 279 | 4.3 | 9.6 | 0.00 | 0.00 | 0.00 | 76 | 1011.5 |
| 20260901011556 | 72 | 261 | 2.6 | 7.0 | 0.00 | 0.00 | 0.00 | 78 | 1011.6 |
| 20260901011055 | 72 | 177 | 2.6 | 8.7 | 0.00 | 0.00 | 0.00 | 78 | 1011.6 |
| 20260901010555 | 72 | 246 | 4.3 | 8.7 | 0.00 | 0.00 | 0.00 | 77 | 1011.7 |
| 20260901010113 | 72 | 161 | 3.5 | 7.8 | 0.00 | 0.00 | 0.00 | 76 | 1011.7 |
| 20260901005555 | 73 | 206 | 4.3 | 7.8 | 0.00 | 0.00 | 0.00 | 75 | 1011.7 |
| 20260901005055 | 73 | 209 | 3.5 | 8.7 | 0.00 | 0.00 | 0.00 | 75 | 1011.7 |
| 20260901004603 | 73 | 252 | 4.3 | 9.6 | 0.00 | 0.00 | 0.00 | 75 | 1011.7 |
| 20260901004054 | 73 | 261 | 3.5 | 9.6 | 0.00 | 0.00 | 0.00 | 75 | 1011.6 |
| 20260901003554 | 73 | 252 | 3.5 | 9.6 | 0.00 | 0.00 | 0.00 | 75 | 1011.6 |
| 20260901003059 | 73 | 253 | 3.5 | 9.6 | 0.00 | 0.00 | 0.00 | 75 | 1011.6 |
| 20260901002554 | 73 | 196 | 2.6 | 10.4 | 0.00 | 0.00 | 0.00 | 75 | 1011.6 |
| 20260901002056 | 73 | 255 | 3.5 | 10.4 | 0.00 | 0.00 | 0.00 | 74 | 1011.8 |
| 20260901001603 | 73 | 175 | 4.3 | 10.4 | 0.00 | 0.00 | 0.00 | 74 | 1011.7 |
| 20260901001058 | 73 | 272 | 3.5 | 10.4 | 0.00 | 0.00 | 0.00 | 75 | 1011.8 |
| 20260901000556 | 74 | 205 | 5.2 | 9.6 | 0.00 | 0.00 | 0.00 | 73 | 1011.9 |
| 20260901000113 | 74 | 196 | 3.5 | 10.4 | 0.00 | 0.00 | 0.00 | 74 | 1011.8 |
| 20260831235556 | 74 | 211 | 6.1 | 14.8 | 0.00 | 0.00 | 0.00 | 72 | 1011.8 |
| 20260831235056 | 74 | 247 | 6.1 | 14.8 | 0.00 | 0.00 | 0.00 | 71 | 1011.8 |
| 20260831234556 | 75 | 173 | 7.8 | 14.8 | 0.00 | 0.00 | 0.00 | 69 | 1011.8 |
| 20260831234056 | 75 | 228 | 6.1 | 12.2 | 0.00 | 0.00 | 0.00 | 68 | 1011.8 |
| 20260831233554 | 75 | 194 | 5.2 | 10.4 | 0.00 | 0.00 | 0.00 | 64 | 1011.7 |
| 20260831233111 | 75 | 252 | 5.2 | 11.3 | 0.00 | 0.00 | 0.00 | 66 | 1011.7 |
| 20260831232554 | 75 | 261 | 7.0 | 11.3 | 0.00 | 0.00 | 0.00 | 64 | 1011.6 |
| 20260831232054 | 76 | 294 | 5.2 | 11.3 | 0.00 | 0.00 | 0.00 | 68 | 1011.7 |
| 20260831231553 | 75 | 261 | 3.5 | 11.3 | 0.00 | 0.00 | 0.00 | 67 | 1011.6 |
| 20260831231056 | 75 | 200 | 6.1 | 11.3 | 0.00 | 0.00 | 0.00 | 65 | 1011.6 |
| 20260831230558 | 76 | 296 | 5.2 | 9.6 | 0.00 | 0.00 | 0.00 | 67 | 1011.8 |
| 20260831230115 | 76 | 161 | 4.3 | 11.3 | 0.00 | 0.00 | 0.00 | 64 | 1011.7 |
| 20260831225556 | 75 | 275 | 4.3 | 12.2 | 0.00 | 0.00 | 0.00 | 63 | 1011.7 |
| 20260831225053 | 76 | 200 | 7.0 | 12.2 | 0.00 | 0.00 | 0.00 | 62 | 1011.7 |
| 20260831224559 | 76 | 234 | 7.0 | 11.3 | 0.00 | 0.00 | 0.00 | 62 | 1011.8 |
| 20260831224052 | 76 | 203 | 5.2 | 10.4 | 0.00 | 0.00 | 0.00 | 58 | 1012.0 |
| 20260831223553 | 76 | 192 | 5.2 | 10.4 | 0.00 | 0.00 | 0.00 | 60 | 1011.9 |
| 20260831223109 | 76 | 222 | 4.3 | 9.6 | 0.00 | 0.00 | 0.00 | 60 | 1011.9 |
| 20260831222555 | 76 | 275 | 3.5 | 9.6 | 0.00 | 0.00 | 0.00 | 64 | 1011.9 |
| 20260831222052 | 76 | 247 | 4.3 | 11.3 | 0.00 | 0.00 | 0.00 | 66 | 1012.1 |
| 20260831221559 | 76 | 163 | 5.2 | 11.3 | 0.00 | 0.00 | 0.00 | 66 | 1012.1 |
| 20260831221052 | 76 | 298 | 6.1 | 11.3 | 0.00 | 0.00 | 0.00 | 66 | 1012.1 |
| 20260831220552 | 76 | 276 | 4.3 | 11.3 | 0.00 | 0.00 | 0.00 | 70 | 1012.2 |
| 20260831220104 | 76 | 272 | 6.1 | 13.0 | 0.00 | 0.00 | 0.00 | 71 | 1012.1 |
| 20260831215552 | 76 | 207 | 4.3 | 13.0 | 0.00 | 0.00 | 0.00 | 70 | 1012.2 |
| 20260831215052 | 76 | 209 | 6.1 | 13.0 | 0.00 | 0.00 | 0.00 | 72 | 1012.3 |
| 20260831214609 | 77 | 244 | 4.3 | 12.2 | 0.00 | 0.00 | 0.00 | 72 | 1012.3 |
| 20260831214052 | 77 | 116 | 3.5 | 11.3 | 0.00 | 0.00 | 0.00 | 74 | 1012.2 |
| 20260831213555 | 77 | 177 | 3.5 | 11.3 | 0.00 | 0.00 | 0.00 | 73 | 1012.4 |
| 20260831213101 | 77 | 209 | 4.3 | 11.3 | 0.00 | 0.00 | 0.00 | 73 | 1012.4 |
| 20260831212556 | 77 | 175 | 5.2 | 10.4 | 0.00 | 0.00 | 0.00 | 73 | 1012.5 |
| 20260831212059 | 77 | 201 | 3.5 | 8.7 | 0.00 | 0.00 | 0.00 | 73 | 1012.5 |
| 20260831211607 | 76 | 0 | 3.5 | 8.7 | 0.00 | 0.00 | 0.00 | 75 | 1012.5 |
| 20260831211056 | 76 | 196 | 3.5 | 8.7 | 0.00 | 0.00 | 0.00 | 74 | 1012.6 |
| 20260831210555 | 76 | 190 | 4.3 | 10.4 | 0.00 | 0.00 | 0.00 | 76 | 1012.6 |
| 20260831210057 | 76 | 291 | 4.3 | 10.4 | 0.00 | 0.00 | 0.00 | 75 | 1012.7 |
| 20260831205554 | 76 | 282 | 5.2 | 9.6 | 0.00 | 0.00 | 0.00 | 74 | 1012.7 |
| 20260831205056 | 76 | 307 | 3.5 | 12.2 | 0.00 | 0.00 | 0.00 | 74 | 1012.7 |
| 20260831204609 | 76 | 236 | 6.1 | 12.2 | 0.00 | 0.00 | 0.00 | 74 | 1012.7 |
| 20260831204057 | 76 | 263 | 5.2 | 10.4 | 0.00 | 0.00 | 0.00 | 75 | 1012.7 |
| 20260831203555 | 76 | 188 | 4.3 | 11.3 | 0.00 | 0.00 | 0.00 | 75 | 1012.7 |
| 20260831203116 | 76 | 214 | 5.2 | 12.2 | 0.00 | 0.00 | 0.00 | 75 | 1012.8 |
| 20260831202551 | 76 | 260 | 6.1 | 12.2 | 0.00 | 0.00 | 0.00 | 75 | 1012.8 |
| 20260831202054 | 76 | 222 | 3.5 | 10.4 | 0.00 | 0.00 | 0.00 | 73 | 1012.8 |
| 20260831201607 | 76 | 271 | 5.2 | 10.4 | 0.00 | 0.00 | 0.00 | 73 | 1012.8 |
| 20260831201057 | 76 | 180 | 4.3 | 10.4 | 0.00 | 0.00 | 0.00 | 73 | 1012.8 |
| 20260831200556 | 76 | 290 | 3.5 | 10.4 | 0.00 | 0.00 | 0.00 | 74 | 1012.9 |
| 20260831200111 | 76 | 300 | 4.3 | 10.4 | 0.00 | 0.00 | 0.00 | 74 | 1012.8 |
| 20260831195556 | 76 | 215 | 4.3 | 10.4 | 0.00 | 0.00 | 0.00 | 74 | 1012.9 |
| 20260831195055 | 76 | 130 | 3.5 | 9.6 | 0.00 | 0.00 | 0.00 | 74 | 1012.9 |
| 20260831194642 | 76 | 254 | 4.3 | 8.7 | 0.00 | 0.00 | 0.00 | 74 | 1012.9 |
| 20260831194052 | 76 | 311 | 3.5 | 8.7 | 0.00 | 0.00 | 0.00 | 75 | 1012.9 |
| 20260831193551 | 76 | 218 | 2.6 | 9.6 | 0.00 | 0.00 | 0.00 | 75 | 1013.2 |
| 20260831193100 | 76 | 253 | 3.5 | 9.6 | 0.00 | 0.00 | 0.00 | 75 | 1013.1 |
| 20260831192555 | 76 | 300 | 4.3 | 10.4 | 0.00 | 0.00 | 0.00 | 75 | 1013.1 |
| 20260831192055 | 76 | 261 | 3.5 | 10.4 | 0.00 | 0.00 | 0.00 | 76 | 1013.1 |
| 20260831191602 | 76 | 286 | 5.2 | 10.4 | 0.00 | 0.00 | 0.00 | 76 | 1013.1 |
| 20260831191058 | 76 | 304 | 3.5 | 9.6 | 0.00 | 0.00 | 0.00 | 75 | 1013.2 |
| 20260831190554 | 76 | 246 | 5.2 | 9.6 | 0.00 | 0.00 | 0.00 | 76 | 1013.2 |
| 20260831190109 | 76 | 141 | 2.6 | 8.7 | 0.00 | 0.00 | 0.00 | 77 | 1013.2 |
| 20260831185552 | 75 | 205 | 3.5 | 9.6 | 0.00 | 0.00 | 0.00 | 76 | 1013.2 |
| 20260831185051 | 76 | 148 | 4.3 | 9.6 | 0.00 | 0.00 | 0.00 | 75 | 1013.2 |
| 20260831184603 | 76 | 224 | 3.5 | 9.6 | 0.00 | 0.00 | 0.00 | 76 | 1013.2 |
| 20260831184055 | 76 | 282 | 2.6 | 9.6 | 0.00 | 0.00 | 0.00 | 76 | 1013.2 |
| 20260831183555 | 76 | 298 | 4.3 | 9.6 | 0.00 | 0.00 | 0.00 | 76 | 1013.2 |
| 20260831183107 | 76 | 188 | 3.5 | 9.6 | 0.00 | 0.00 | 0.00 | 75 | 1013.3 |
| 20260831182553 | 76 | 154 | 4.3 | 7.8 | 0.00 | 0.00 | 0.00 | 75 | 1013.2 |
| 20260831182058 | 75 | 203 | 0.9 | 8.7 | 0.00 | 0.00 | 0.00 | 76 | 1013.3 |
| 20260831181609 | 75 | 199 | 4.3 | 8.7 | 0.00 | 0.00 | 0.00 | 76 | 1013.3 |
| 20260831181055 | 75 | 174 | 1.7 | 8.7 | 0.00 | 0.00 | 0.00 | 76 | 1013.4 |
| 20260831180556 | 75 | 208 | 3.5 | 8.7 | 0.00 | 0.00 | 0.00 | 76 | 1013.4 |
| 20260831180111 | 75 | 225 | 2.6 | 8.7 | 0.00 | 0.00 | 0.00 | 77 | 1013.4 |
| 20260831175557 | 75 | 168 | 2.6 | 7.8 | 0.00 | 0.00 | 0.00 | 77 | 1013.3 |
| 20260831175054 | 75 | 184 | 2.6 | 9.6 | 0.00 | 0.00 | 0.00 | 76 | 1013.3 |
| 20260831174600 | 74 | 268 | 2.6 | 9.6 | 0.00 | 0.00 | 0.00 | 77 | 1013.3 |
| 20260831174055 | 74 | 183 | 2.6 | 8.7 | 0.00 | 0.00 | 0.00 | 77 | 1013.3 |